Regional Weather Roundup
Issued by NWS

Home | Current Version | Previous Version | Graphics & Text | Print | Product List | Glossary On
Versions: 1 2 3 4 5 6 7 8 9 10 11 12 13 14 15 16 17 18 19 20 21 22 23 24 25 26 27 28 29 30 31 32 33 34 35 36 37 38 39 40 41 42 43 44 45 46 47 48 49 50
071
ASUS43 KMKX 242000
RWRWI

WISCONSIN REGIONAL WEATHER ROUNDUP
NATIONAL WEATHER SERVICE MILWAUKEE/SULLIVAN WI
300 PM CDT SUN SEP 24 2017

NOTE: "FAIR" INDICATES FEW OR NO CLOUDS BELOW 12,000 FEET WITH NO
SIGNIFICANT WEATHER AND/OR OBSTRUCTIONS TO VISIBILITY.

WIZ001-002-006>008-014>016-023>028-242100-
NORTHWEST WISCONSIN

CITY           SKY/WX    TMP DP  RH WIND       PRES   REMARKS
SUPERIOR ARPT  MOSUNNY   69  64  85 NE7       29.89F
ASHLAND        MOSUNNY   89  64  43 S15G23    29.91F HX  90
HAYWARD        CLOUDY    85  62  46 S20       29.94F HX  85
SIREN          SUNNY     87  61  41 SW15      29.91F HX  87
CUMBERLAND     MOSUNNY   82  61  47 S14       29.94F HX  83
RICE LAKE      MOSUNNY   86  61  42 S13G20    29.96S HX  86
CHETEK           N/A     85  65  50 S7G16     29.95S HX  87
LADYSMITH      SUNNY     86  59  40 S16G23    29.98F HX  85
EAU CLAIRE     NOT AVBL
MENOMONIE      MOSUNNY   88  64  45 S12       29.94F HX  89
NEW RICHMOND   MOSUNNY   86  61  42 S16       29.92F HX  86
OSCEOLA        MOSUNNY   87  61  40 S14       29.93F HX  87
$$

WIZ003>005-009-010-017-018-242100-
NORTH CENTRAL WISCONSIN

CITY           SKY/WX    TMP DP  RH WIND       PRES   REMARKS
MANITOWISH WTR NOT AVBL
ARBOR VITAE    SUNNY     85  60  41 S14G21    30.00F HX  85
WOODRUFF       SUNNY     85  60  41 S14G21    30.00F HX  85
RHINELANDER    MOSUNNY   86  62  44 S12       30.02F HX  86
EAGLE RIVER    MOSUNNY   86  56  36 SW8G17    30.01F HX  84
LAND O LAKES   MOSUNNY   85  57  37 SW10G18   30.02F HX  84
PHILLIPS       MOSUNNY   85  61  43 S15G24    29.98S HX  85
TOMAHAWK       MOSUNNY   86  59  40 S6        30.01F HX  85
MEDFORD        MOSUNNY   86  60  42 S13G18    30.00F HX  86
MERRILL        SUNNY     88  62  42 SW15      30.01F HX  88
$$

WIZ029-030-035-036-043>047-242100-
CENTRAL WISCONSIN

CITY           SKY/WX    TMP DP  RH WIND       PRES   REMARKS
WAUSAU         MOSUNNY   86  61  42 S10       29.99F HX  86
MOSINEE        NOT AVBL
MARSHFIELD     SUNNY     87  57  35 S16G22    29.99F HX  86
STEVENS POINT  SUNNY     86  61  42 S16       30.01F HX  86
WAUPACA        SUNNY     91  62  38 S12       30.01F HX  91
WAUTOMA        SUNNY     89  63  41 S10G17    30.00F HX  90
WISC RAPIDS    SUNNY     89  61  38 SW14      30.01F HX  89
CAMP DOUGLAS   NOT AVBL
$$

WIZ011>013-019>022-031-037>040-048>050-242100-
NORTHEAST WISCONSIN

CITY           SKY/WX    TMP DP  RH WIND       PRES   REMARKS
ANTIGO         MOSUNNY   84  62  48 S15G21    30.03F HX  85
SHAWANO        SUNNY     91  63  39 S6        30.00F HX  91
OCONTO         SUNNY     89  67  48 S7        30.00F HX  91
STURGEON BAY   SUNNY     85  66  53 S12       30.03F HX  87
GREEN BAY      SUNNY     89  65  44 S8        30.01F HX  91
MANITOWOC      SUNNY     80  67  64 SE12      30.04F HX  82
APPLETON       MOSUNNY   86  57  37 S13       30.01F HX  85
CLINTONVILLE   NOT AVBL
OSHKOSH        MOSUNNY   87  64  46 SW8       30.01F HX  88
$$

WIZ032>034-041-042-053>061-242100-
SOUTHWEST WISCONSIN

CITY           SKY/WX    TMP DP  RH WIND       PRES   REMARKS
LA CROSSE      SUNNY     93  60  33 S15       29.95F HX  93
SPARTA         SUNNY     89  61  38 S13       29.98F HX  89
VIROQUA        SUNNY     89  60  37 S10G16    30.01S HX  88
BOSCOBEL       SUNNY     91  60  35 S7        29.98F HX  90
PRAIRIE DU CHI SUNNY     90  56  32 S10       29.97S HX  88
PLATTEVILLE    SUNNY     88  59  36 S9        30.02S HX  87
$$

WIZ056-057-062-063-064-067-068-242100-
SOUTH CENTRAL WISCONSIN

CITY           SKY/WX    TMP DP  RH WIND       PRES   REMARKS
REEDSBURG      SUNNY     89  60  37 SE8       29.99F HX  89
BARABOO/DELLS  SUNNY     89  54  30 SE12G17   30.00F HX  86
LONE ROCK      NOT AVBL
MINERAL POINT  SUNNY     90  57  33 SE10G16   30.02F HX  88
MADISON        SUNNY     89  59  36 S12G21    30.01F HX  88
MIDDLETON      SUNNY     91  56  31 S12G17    30.02F HX  89
WATERTOWN      SUNNY     89  61  39 S14G20    30.02F HX  89
MONROE         SUNNY     88  54  31 S15       30.02F HX  86
JANESVILLE     SUNNY     91  52  25 S13G18    30.01F HX  89
$$

WIZ051-052-058>065-066-070>072-242100-
SOUTHEAST WISCONSIN

CITY           SKY/WX    TMP DP  RH WIND       PRES   REMARKS
MILWAUKEE      MOSUNNY   88  66  48 SE15      30.03F HX  90
WAUKESHA       MOSUNNY   88  57  35 SE10G17   30.04F HX  86
MILWAUKEE/TIMM MOSUNNY   90  52  27 S9G17     30.03F HX  87
RACINE         SUNNY     87  64  46 SE12      30.05F HX  88
BURLINGTON     SUNNY     87  62  43 S10       30.03F HX  87
KENOSHA        SUNNY     90  62  39 SE12      30.04F HX  90
FOND DU LAC    SUNNY     88  60  38 S9        30.01F HX  87
SHEBOYGAN      SUNNY     86  68  54 S10       30.03F HX  89
WEST BEND        N/A     88  55  33 S9        30.03F HX  86
JUNEAU         SUNNY     87  62  44 S12G17    30.04F HX  87
$$

LSZ147-162-242100-
LAKE SUPERIOR

STATION/POSITION TIME  TEMP    WIND        PRES    WAVE
                       AIR SEA DIR/SP/G            HT/PER
                 (UTC) (F)     (DEG/KT/KT) (MB)    (FT/S)
W MID LAKE BUOY  1850   67 58  120/  4/  6 1012.8F   1
DEVILS ISLAND    1900   65      20/  5/  6 1012.8F
SAXON HARBOR     1940   88     210/  9/ 16 1012.2F
$$

LMZ867-665-643>646-242100-
LAKE MICHIGAN

STATION/POSITION TIME  TEMP    WIND        PRES    WAVE
                       AIR SEA DIR/SP/G            HT/PER
                 (UTC) (F)     (DEG/KT/KT) (MB)    (FT/S)
S GREEN BAY BUOY 1930   83 70  120/  2/  2 1016.2F
N MID LAKE BUOY  1850   69 67  190/ 10/ 10 1018.2F   1/ 3
NORTHPORT PIER   1940   74     140/  7/  9 1016.3F
KEWAUNEE LAKESHO 1930   67     180/ 10/ 10 1016.4F
SHEBOYGAN LAKESH 1900   71     160/ 10/ 10 1017.0F
PORT WASHINGTON  1940   77     140/  3/  4 1017.9F
ATWATER BUOY     1809   71 65  170/  4/  6 1017.9F
MILWAUKEE LAKESH 1930   69     140/ 13/ 14   N/A
S MID LAKE BUOY  1850   73 71  140/  6/  6 1018.4F   1
KENOSHA   LAKESH 1900   76     150/ 10/ 11 1017.3
$$

TC  - TEMPERATURE IN CELSIUS
VSB - VISIBILITY IN STATUTE MILES
WCI - WIND CHILL INDEX
HX  - HEAT INDEX





USA.gov is the U.S. government's official web portal to all federal, state and local government web resources and services.